Location: Del Amo
(33.8464°N, 118.2104°W)
Time: 01:38:56
(UTC+00:00)

SR - Pass Details

Date: 26 September 2024
Orbit: 578 x 855 km, 66.7° (Epoch: 06 October)

Event Time Altitude Azimuth Distance (km) Brightness Sun altitude
Rises 16:59:26 0° 178° (S) 2,826 ? 37.6°
Reaches altitude 10° 17:01:59 10° 164° (SSE) 1,904 ? 38.0°
Maximum altitude 17:05:27 25° 109° (ESE) 1,190 ? 38.6°
Drops below altitude 10° 17:08:54 10° 54° (NE) 1,890 ? 39.2°
Sets 17:11:25 0° 41° (NE) 2,801 ? 39.6°
